Latest Weather Observations for Archerfield

IDQ60801

Issued at 3:02 am EST Monday 8 February 2016 (issued every 30 minutes, with the page automatically refreshed every 10 minutes)

About weather observations | Map of weather stations | Latest weather observations for QLD | Other Formats
Station Details ID: 040211 Name: ARCHERFIELD AIRPORT Lat: -27.57 Lon: 153.01 Height: 12.5 m
Data from the previous 72 hours. | See also: Recent months at Archerfield
Date/Time
EST
Temp
°C
App
Temp
°C
Dew
Point
Rel
Hum
%
Delta-T
°C
Wind Press
QNH
hPa
Press
MSL
hPa
Rain
since 9 am
mm
Dir
 
Spd
km/h
Gust
km/h
Spd
kts
Gust
kts
08/03:00am 18.6 19.5 16.2 86 1.4 SSW 6 7 3 4 1014.5 1014.4 0.2
08/02:30am 19.2 19.5 16.1 82 1.8 S 9 9 5 5 1014.5 1014.4 0.2
08/02:00am 19.5 20.4 16.0 80 2.1 SSW 6 7 3 4 1014.8 1014.7 0.2
08/01:30am 19.4 20.6 15.9 80 2.1 SSW 4 7 2 4 1014.9 1014.8 0.2
08/01:00am 20.0 19.9 16.0 78 2.4 S 11 13 6 7 1014.7 1014.6 0.2
08/12:30am 20.2 20.1 16.0 77 2.5 S 11 13 6 7 1015.2 1015.1 0.2
08/12:00am 20.6 21.3 16.0 75 2.8 SSW 7 7 4 4 1015.8 1015.7 0.2
 
Date/Time
EST
Temp
°C
App
Temp
°C
Dew
Point
Rel
Hum
%
Delta-T
°C
Wind Press
QNH
hPa
Press
MSL
hPa
Rain
since 9 am
mm
Dir
 
Spd
km/h
Gust
km/h
Spd
kts
Gust
kts
07/11:30pm 20.9 20.9 16.3 75 2.8 S 11 13 6 7 1015.5 1015.4 0.2
07/11:00pm 21.3 21.6 16.0 72 3.2 S 9 11 5 6 1015.6 1015.5 0.2
07/10:30pm 21.7 22.1 16.4 72 3.2 S 9 11 5 6 1015.6 1015.5 0.2
07/10:00pm 21.5 22.0 16.5 73 3.0 S 9 13 5 7 1015.6 1015.5 0.2
07/09:30pm 22.4 23.1 16.2 68 3.8 SSE 7 9 4 5 1015.5 1015.4 0.2
07/09:00pm 22.8 24.1 16.1 66 4.1 SSE 4 11 2 6 1015.3 1015.2 0.2
07/08:30pm 23.1 23.7 15.9 64 4.3 S 7 11 4 6 1015.0 1014.9 0.2
07/08:00pm 23.5 23.3 15.8 62 4.6 SE 11 15 6 8 1014.7 1014.6 0.2
07/07:30pm 24.5 24.0 16.0 59 5.2 SSE 13 17 7 9 1014.8 1014.7 0.2
07/07:00pm 24.9 24.2 16.3 59 5.3 SE 15 20 8 11 1014.1 1014.0 0.2
07/06:30pm 25.1 24.9 16.8 60 5.1 SE 13 19 7 10 1013.8 1013.7 0.2
07/06:00pm 25.2 24.2 16.6 59 5.3 SE 17 22 9 12 1013.3 1013.2 0.2
07/05:30pm 25.1 24.3 17.1 61 5.0 SE 17 24 9 13 1013.2 1013.1 0.2
07/05:00pm 23.6 21.4 17.8 70 3.6 SSE 26 35 14 19 1013.2 1013.1 0.2
07/04:30pm 26.1 24.8 16.9 57 5.7 SSE 19 28 10 15 1012.7 1012.6 0.2
07/04:00pm 26.6 25.5 17.4 57 5.8 SSE 19 24 10 13 1012.3 1012.2 0.2
07/03:30pm 27.3 26.4 18.3 58 5.7 SE 20 26 11 14 1012.4 1012.3 0.2
07/03:00pm 26.9 26.1 17.9 57 5.7 SE 19 24 10 13 1012.5 1012.4 0.2
07/02:30pm 26.6 24.9 18.2 60 5.3 SSE 24 32 13 17 1012.7 1012.6 0.2
07/02:00pm 27.2 25.4 17.9 56 5.9 ESE 24 35 13 19 1012.8 1012.7 0.2
07/01:30pm 26.9 26.2 18.2 59 5.5 SE 19 32 10 17 1012.9 1012.8 0.2
07/01:00pm 26.3 26.1 18.4 61 5.0 S 17 24 9 13 1012.9 1012.8 0.2
07/12:30pm 26.6 25.8 18.5 61 5.2 SSW 20 28 11 15 1013.0 1012.9 0.2
07/12:00pm 26.6 26.1 18.7 62 5.0 SSE 19 26 10 14 1013.0 1012.9 0.2
07/11:30am 26.6 25.5 18.7 62 5.0 S 22 32 12 17 1013.4 1013.3 0.2
07/11:00am 27.0 26.7 19.1 62 5.1 S 19 26 10 14 1013.4 1013.3 0.0
07/10:30am 24.7 23.6 17.7 65 4.4 SSW 20 28 11 15 1013.6 1013.5 0.0
07/10:00am 24.6 22.4 17.8 66 4.3 SSW 26 33 14 18 1013.8 1013.7 0.0
07/09:30am 26.1 26.3 18.5 63 4.8 SSE 15 22 8 12 1013.7 1013.6 0.0
07/09:00am 25.6 25.9 18.8 66 4.3 S 15 19 8 10 1013.7 1013.6 1.2
07/08:30am 25.2 25.9 19.6 71 3.6 S 15 22 8 12 1013.6 1013.5 1.2
07/08:00am 23.9 23.6 18.3 71 3.5 SSW 17 22 9 12 1013.6 1013.5 1.2
07/07:30am 23.6 24.0 18.9 75 3.0 SSW 15 20 8 11 1013.3 1013.2 1.2
07/07:00am 23.1 23.9 19.1 78 2.5 SSW 13 15 7 8 1013.3 1013.2 1.2
07/06:30am 21.9 22.9 18.7 82 2.0 SSW 11 13 6 7 1013.2 1013.1 1.2
07/06:00am 21.2 22.3 18.8 86 1.5 SSW 11 15 6 8 1012.9 1012.8 1.2
07/05:30am 21.1 22.2 18.9 87 1.4 SSW 11 17 6 9 1012.5 1012.4 1.2
07/05:00am 21.3 22.5 19.0 87 1.5 SSW 11 17 6 9 1012.5 1012.4 1.2
07/04:30am 21.5 22.4 19.2 87 1.5 SSW 13 19 7 10 1012.1 1012.0 1.2
07/04:00am 21.4 22.5 19.7 90 1.1 SSW 13 15 7 8 1011.8 1011.7 1.2
07/03:30am 21.5 24.0 19.8 90 1.1 SSW 6 9 3 5 1011.9 1011.8 1.2
07/03:00am 21.6 23.6 19.9 90 1.1 SSW 9 13 5 7 1011.7 1011.6 1.2
07/02:30am 21.8 23.0 19.9 89 1.2 SSW 13 17 7 9 1011.7 1011.6 1.2
07/02:00am 22.2 24.1 19.7 86 1.6 SW 9 13 5 7 1011.6 1011.5 1.2
07/01:30am 22.7 25.2 20.2 86 1.6 S 7 9 4 5 1011.5 1011.4 1.2
07/01:00am 22.6 25.5 19.9 85 1.7 SSE 4 7 2 4 1011.4 1011.3 1.2
07/12:30am 22.5 24.9 20.0 86 1.6 SSE 7 11 4 6 1011.7 1011.6 1.2
07/12:00am 22.6 24.3 20.1 86 1.6 SSE 11 15 6 8 1012.1 1012.0 1.2
 
Date/Time
EST
Temp
°C
App
Temp
°C
Dew
Point
Rel
Hum
%
Delta-T
°C
Wind Press
QNH
hPa
Press
MSL
hPa
Rain
since 9 am
mm
Dir
 
Spd
km/h
Gust
km/h
Spd
kts
Gust
kts
06/11:30pm 22.7 24.5 20.4 87 1.5 SSE 11 17 6 9 1012.6 1012.5 1.2
06/11:00pm 23.1 25.2 20.2 84 1.9 SSE 9 13 5 7 1012.7 1012.6 1.0
06/10:30pm 23.1 25.7 20.4 85 1.8 SSE 7 13 4 7 1013.2 1013.1 1.0
06/10:00pm 23.2 25.3 20.2 83 1.9 S 9 19 5 10 1013.4 1013.3 1.0
06/09:30pm 22.9 25.7 20.4 86 1.6 SSE 6 7 3 4 1013.4 1013.3 1.0
06/09:00pm 23.0 25.2 20.5 86 1.6 SSE 9 13 5 7 1012.9 1012.8 1.0
06/08:30pm 22.9 24.3 20.4 86 1.6 SSE 13 20 7 11 1012.8 1012.7 1.0
06/08:00pm 22.8 24.7 20.5 87 1.5 SE 11 13 6 7 1012.4 1012.3 1.0
06/07:30pm 22.8 22.6 20.5 87 1.5 SE 22 35 12 19 1011.9 1011.8 1.0
06/07:00pm 23.5 24.4 20.8 85 1.8 SE 17 22 9 12 1011.6 1011.5 0.8
06/06:30pm 23.6 24.4 20.7 84 1.9 SSE 17 24 9 13 1011.2 1011.1 0.8
06/06:00pm 23.6 24.5 20.9 85 1.8 SE 17 28 9 15 1010.8 1010.7 0.6
06/05:30pm 23.4 21.9 20.3 83 2.0 SE 28 43 15 23 1010.6 1010.5 0.6
06/05:00pm 25.4 24.8 20.4 74 3.3 SE 24 37 13 20 1009.8 1009.7 0.6
06/04:30pm 24.3 24.5 21.4 84 1.9 ESE 22 35 12 19 1009.7 1009.6 0.6
06/04:07pm 25.6 23.9 19.9 70 3.7 SE 28 48 15 26 1009.5 1009.4 0.4
06/04:00pm 26.7 25.9 20.1 67 4.3 SE 24 33 13 18 1009.4 1009.3 0.4
06/03:30pm 26.2 26.4 21.4 75 3.2 SE 22 30 12 16 1009.4 1009.3 0.4
06/03:04pm 26.7 25.1 20.1 67 4.3 ESE 28 48 15 26 1009.4 1009.3 0.2
06/03:00pm 27.8 26.2 20.1 63 5.0 ESE 28 39 15 21 1009.3 1009.2 0.2
06/02:30pm 27.4 25.0 20.0 64 4.8 ESE 32 41 17 22 1009.5 1009.4 0.2
06/02:06pm 27.5 25.2 20.1 64 4.8 SE 32 50 17 27 1009.6 1009.5 0.2
06/02:00pm 28.7 26.2 20.2 60 5.6 SE 33 43 18 23 1009.5 1009.4 0.2
06/01:39pm 28.1 25.9 20.4 63 5.1 ESE 32 50 17 27 1009.8 1009.7 0.2
06/01:30pm 27.9 25.3 19.9 61 5.2 ESE 33 50 18 27 1009.7 1009.6 0.2
06/01:00pm 29.8 28.4 20.4 57 6.2 ESE 28 37 15 20 1009.9 1009.8 0.2
06/12:30pm 28.3 26.5 20.3 62 5.3 SE 30 43 16 23 1010.0 1009.9 0.2
06/12:00pm 27.2 27.5 20.8 68 4.2 SE 20 30 11 16 1010.5 1010.4 0.2
06/11:49am 25.9 24.2 21.3 76 3.0 SE 32 50 17 27 1010.8 1010.7 0.2
06/11:30am 29.2 27.8 20.4 59 5.8 ESE 28 41 15 22 1010.7 1010.6 0.2
06/11:00am 27.9 27.2 21.0 66 4.6 SE 26 37 14 20 1011.1 1011.0 0.2
06/10:30am 25.4 24.4 20.4 74 3.3 SE 26 37 14 20 1011.3 1011.2 0.2
06/10:19am 24.5 22.6 21.0 81 2.3 SE 32 50 17 27 1011.4 1011.3 0.2
06/10:00am 26.6 26.8 21.4 73 3.5 SE 22 33 12 18 1011.4 1011.3 0.2
06/09:30am 25.4 26.1 21.5 79 2.6 SE 20 30 11 16 1011.6 1011.5 0.2
06/09:00am 24.3 24.5 20.6 80 2.4 SE 20 33 11 18 1011.6 1011.5 3.0
06/08:30am 24.2 25.5 20.9 82 2.2 SSE 15 19 8 10 1011.5 1011.4 3.0
06/08:00am 23.6 24.6 20.3 82 2.1 SSE 15 24 8 13 1011.3 1011.2 3.0
06/07:30am 22.7 24.5 20.4 87 1.5 SSE 11 17 6 9 1011.3 1011.2 3.0
06/07:00am 22.4 24.5 20.1 87 1.5 SE 9 13 5 7 1011.0 1010.9 3.0
06/06:30am 22.4 23.2 19.8 85 1.7 SSE 15 22 8 12 1010.9 1010.8 2.8
06/06:00am 22.7 22.9 19.3 81 2.2 SSE 17 22 9 12 1010.4 1010.3 2.6
06/05:30am 22.6 23.9 19.2 81 2.2 S 11 17 6 9 1009.8 1009.7 2.6
06/05:00am 22.5 21.7 19.3 82 2.0 SSE 22 32 12 17 1009.3 1009.2 2.6
06/04:30am 23.2 23.2 18.9 77 2.7 SSE 17 24 9 13 1009.1 1009.0 2.6
06/04:00am 23.0 22.5 18.7 77 2.7 SSE 19 30 10 16 1008.9 1008.8 2.6
06/03:30am 23.0 22.9 18.7 77 2.7 SE 17 22 9 12 1008.9 1008.8 2.6
06/03:00am 23.2 23.2 18.9 77 2.7 SSE 17 26 9 14 1008.7 1008.6 2.6
06/02:30am 22.5 24.2 18.5 78 2.5 SW 7 19 4 10 1008.8 1008.7 2.6
06/02:00am 22.4 24.3 19.0 81 2.2 S 7 11 4 6 1009.1 1009.0 2.6
06/01:30am 22.0 23.8 18.4 80 2.3 SSW 6 7 3 4 1009.3 1009.2 2.6
06/01:00am 22.0 24.1 19.0 83 1.9 SW 6 7 3 4 1009.4 1009.3 2.6
06/12:30am 22.1 24.1 18.7 81 2.1 SSE 6 7 3 4 1009.6 1009.5 2.6
06/12:00am 22.6 25.7 18.6 78 2.5 CALM 0 6 0 3 1009.8 1009.7 2.6
 
Date/Time
EST
Temp
°C
App
Temp
°C
Dew
Point
Rel
Hum
%
Delta-T
°C
Wind Press
QNH
hPa
Press
MSL
hPa
Rain
since 9 am
mm
Dir
 
Spd
km/h
Gust
km/h
Spd
kts
Gust
kts
05/11:30pm 22.7 25.0 18.5 77 2.6 SSE 4 6 2 3 1010.3 1010.2 2.6
05/11:00pm 23.1 24.9 18.4 75 3.0 S 6 7 3 4 1010.8 1010.7 2.6
05/10:30pm 23.6 24.5 18.5 73 3.2 S 11 15 6 8 1010.9 1010.8 2.6
05/10:00pm 23.6 24.8 18.3 72 3.3 SSE 9 15 5 8 1011.1 1011.0 2.6
05/09:30pm 23.8 24.3 18.4 72 3.4 SSE 13 17 7 9 1011.0 1010.9 2.6
05/09:00pm 24.4 24.5 18.3 69 3.8 SSE 15 24 8 13 1011.1 1011.0 2.6
05/08:30pm 24.4 24.0 19.0 72 3.4 SSE 19 30 10 16 1010.7 1010.6 2.6
05/08:00pm 24.6 24.6 19.0 71 3.6 SE 17 24 9 13 1010.4 1010.3 2.6
05/07:30pm 24.7 25.1 19.1 71 3.6 SE 15 22 8 12 1009.8 1009.7 2.6
05/07:00pm 24.8 23.7 18.7 69 3.9 SE 22 32 12 17 1009.6 1009.5 2.6
05/06:30pm 25.4 23.2 18.6 66 4.3 SE 28 41 15 22 1009.2 1009.1 2.6
05/06:02pm 25.7 23.6 18.9 66 4.3 SSE 28 46 15 25 1008.8 1008.7 2.6
05/06:00pm 25.6 24.0 19.3 68 4.1 SSE 26 37 14 20 1008.8 1008.7 2.6
05/05:30pm 25.7 26.8 20.5 73 3.4 ESE 15 20 8 11 1008.3 1008.2 2.6
05/05:08pm 25.8 23.9 19.4 67 4.1 SE 28 46 15 25 1008.1 1008.0 2.6
05/05:00pm 26.8 25.7 19.4 64 4.8 SE 24 33 13 18 1007.9 1007.8 2.6
05/04:30pm 26.7 26.5 19.8 66 4.5 SE 20 32 11 17 1007.8 1007.7 2.6
05/04:00pm 26.3 26.4 19.9 68 4.2 SE 19 28 10 15 1007.8 1007.7 2.6
05/03:30pm 25.9 28.8 21.8 78 2.7 SSW 9 15 5 8 1007.7 1007.6 2.6
05/03:00pm 25.9 27.7 21.8 78 2.7 S 15 19 8 10 1007.9 1007.8 2.6
05/02:30pm 26.0 27.8 21.9 78 2.7 SSW 15 22 8 12 1008.3 1008.2 2.6
05/02:00pm 25.0 27.3 21.3 80 2.4 SE 11 17 6 9 1008.5 1008.4 2.6
05/01:30pm 25.4 28.4 20.9 76 3.0 S 6 11 3 6 1008.8 1008.7 2.0
05/01:00pm 24.4 26.7 21.3 83 2.0 SE 11 13 6 7 1009.2 1009.1 2.0
05/12:30pm 26.0 28.5 21.0 74 3.3 SW 9 13 5 7 1009.1 1009.0 0.8
05/12:00pm 25.5 28.7 21.6 79 2.6 WSW 7 11 4 6 1009.5 1009.4 0.8
05/11:30am 25.2 26.9 20.2 74 3.3 SW 11 17 6 9 1009.7 1009.6 0.4
05/11:00am 25.6 27.9 20.6 74 3.3 SSW 9 13 5 7 1009.6 1009.5 0.2
05/10:30am 25.8 27.6 20.4 72 3.5 S 11 15 6 8 1009.6 1009.5 0.0
05/10:00am 26.1 27.2 19.7 68 4.1 S 13 19 7 10 1009.7 1009.6 0.0
05/09:30am 25.8 27.5 19.4 67 4.1 S 9 15 5 8 1009.4 1009.3 0.0
05/09:00am 25.4 26.8 19.5 70 3.8 SSW 11 17 6 9 1009.3 1009.2 1.2
05/08:30am 24.5 24.9 18.9 71 3.6 S 15 20 8 11 1009.0 1008.9 1.2
05/08:00am 24.0 24.6 19.5 76 2.9 S 15 20 8 11 1008.9 1008.8 1.2
05/07:30am 23.3 24.2 19.2 78 2.6 SSW 13 17 7 9 1008.8 1008.7 1.2
05/07:00am 23.0 24.4 19.6 81 2.2 SSW 11 13 6 7 1008.4 1008.3 1.2
05/06:30am 22.5 24.7 19.7 84 1.8 SSW 7 11 4 6 1008.0 1007.9 1.2
05/06:00am 21.9 25.4 19.5 86 1.5 CALM 0 0 0 0 1007.5 1007.4 1.2
05/05:30am 21.8 24.0 19.5 87 1.5 SW 7 9 4 5 1007.1 1007.0 1.2
05/05:00am 21.8 23.7 19.7 88 1.3 S 9 11 5 6 1006.7 1006.6 1.2
05/04:30am 21.6 24.8 19.7 89 1.2 SSW 2 6 1 3 1006.6 1006.5 1.2
05/04:00am 21.6 24.9 19.9 90 1.1 SW 2 6 1 3 1006.4 1006.3 1.2
05/03:30am 21.6 25.3 19.9 90 1.1 CALM 0 0 0 0 1006.5 1006.4 1.2

Other Formats:

Comma delimited format used in spreadsheet applications
http://www.bom.gov.au/fwo/IDQ60801/IDQ60801.94575.axf

JavaScript Object Notation format (JSON) in row-major order
http://www.bom.gov.au/fwo/IDQ60801/IDQ60801.94575.json